Location: La Spezia
(44.1170°N, 9.8330°E)
Time: 12:39:24
(UTC+02:00)

ISS - Visible Passes

Search period start: 11 May 2021 00:00
Search period end: 21 May 2021 00:00
Orbit: 418 x 421 km, 51.6° (Epoch: 11 May)

Date Brightness Start Highest point End Pass type
(mag) Time Alt. Az. Time Alt. Az. Time Alt. Az.
11 May -1.3 02:04:21 24° NNE 02:04:21 24° NNE 02:06:22 10° NE visible
11 May -1.3 03:38:10 10° NW 03:40:57 23° N 03:43:44 10° ENE visible
11 May -2.9 05:14:57 10° NW 05:18:16 54° NNE 05:21:36 10° ESE visible
12 May -0.8 01:18:16 15° NE 01:18:16 15° NE 01:18:58 10° NE visible
12 May -1.2 02:51:12 13° NW 02:53:20 22° N 02:56:03 10° NE visible
12 May -2.2 04:27:33 10° NW 04:30:46 39° NNE 04:33:58 10° E visible
13 May -1.3 02:05:02 21° NNW 02:05:42 22° N 02:08:27 10° NE visible
13 May -1.8 03:40:09 10° NW 03:43:12 30° NNE 03:46:16 10° E visible
13 May -3.8 05:16:52 10° WNW 05:20:13 63° SW 05:23:34 10° SE visible
14 May -1.3 01:18:38 23° N 01:18:38 23° N 01:20:55 10° NE visible
14 May -1.5 02:52:43 10° NW 02:55:37 26° NNE 02:58:32 10° ENE visible
14 May -3.7 04:29:25 10° WNW 04:32:48 82° NNE 04:36:10 10° ESE visible
14 May -1.8 21:15:48 10° SSE 21:17:04 12° SE 21:18:19 10° ESE visible
14 May -3.9 22:50:01 10° SW 22:53:22 83° SSE 22:55:37 19° ENE visible
15 May -1.6 00:27:31 10° WNW 00:30:28 27° NNW 00:33:27 10° NE visible
15 May -1.3 02:05:14 10° NW 02:08:00 23° N 02:10:48 10° ENE visible
15 May -3.0 03:42:00 10° NW 03:45:20 54° NNE 03:48:40 10° ESE visible
15 May -2.6 05:19:11 10° W 05:21:57 24° SW 05:24:42 10° SSE visible
15 May -3.6 22:02:43 10° SW 22:05:58 50° SE 22:09:15 10° ENE visible
15 May -2.0 23:39:47 10° W 23:42:54 33° NNW 23:46:01 10° NE visible
16 May -1.2 01:17:40 10° NW 01:20:23 22° N 01:23:06 10° NE visible
16 May -2.3 02:54:36 10° NW 02:57:49 39° NNE 03:01:01 10° E visible
16 May -3.3 04:31:28 10° WNW 04:34:38 38° SW 04:37:47 10° SSE visible
16 May -3.0 21:15:37 10° SSW 21:18:38 31° SE 21:21:39 10° ENE visible
16 May -2.6 22:52:07 10° W 22:55:21 44° NNW 22:58:37 10° NE visible
17 May -1.2 00:30:01 10° WNW 00:32:45 22° N 00:35:29 10° NE visible
17 May -1.8 02:07:12 10° NW 02:10:15 30° NNE 02:13:18 10° E visible
17 May -3.9 03:43:55 10° WNW 03:47:16 63° SW 03:50:36 10° SE visible
17 May -3.3 22:04:31 10° WSW 22:07:51 64° NNW 22:11:13 10° NE visible
17 May -1.3 23:42:18 10° WNW 23:45:07 24° N 23:47:56 10° NE visible
18 May -1.5 01:19:46 10° NW 01:22:40 26° NNE 01:22:55 25° NNE visible
18 May -3.8 21:17:03 10° SW 21:20:24 83° SSE 21:23:46 10° ENE visible
18 May -1.5 22:54:33 10° WNW 22:57:31 27° NNW 23:00:28 10° NE visible
19 May -1.3 00:32:16 10° NW 00:35:03 23° N 00:36:31 17° NE visible
19 May -0.9 02:09:02 10° NW 02:09:26 13° NW 02:09:26 13° NW visible
19 May -1.9 22:06:49 10° W 22:09:56 33° NNW 22:13:02 10° NE visible
19 May -1.2 23:44:41 10° NW 23:47:24 22° N 23:50:07 10° NE visible
20 May -1.5 01:21:38 10° NW 01:23:16 24° NNW 01:23:16 24° NNW visible
20 May -2.4 21:19:08 10° W 21:22:22 44° NNW 21:25:38 10° NE visible
20 May -1.2 22:57:02 10° WNW 22:59:46 22° N 23:02:29 10° NE visible
